Location: Banios
(43.0451°N, 0.2335°E)
Time: 07:32:16
(UTC+00:00)

ATLAS CENTAUR R/B - Visible Passes

Search period start: 09 May 2021 00:00
Search period end: 19 May 2021 00:00
Orbit: 472 x 672 km, 64.7° (Epoch: 08 May)

Date Brightness Start Highest point End Pass type
(mag) Time Alt. Az. Time Alt. Az. Time Alt. Az.
09 May 2.8 01:09:09 33° NNE 01:09:09 33° NNE 01:11:27 10° NNE visible
10 May 2.8 01:11:01 30° NNW 01:11:01 30° NNW 01:13:31 10° NNE visible
11 May 3.0 01:12:50 24° NNW 01:12:50 24° NNW 01:15:30 10° NNE visible
11 May 3.8 23:38:29 14° NE 23:38:29 14° NE 23:39:10 10° NE visible
12 May 3.4 01:14:37 18° NW 01:14:40 18° NW 01:17:21 10° N visible
12 May 3.5 23:40:12 20° NE 23:40:12 20° NE 23:41:28 10° NE visible
13 May 3.7 01:16:20 13° NW 01:17:06 13° NW 01:19:00 10° N visible
13 May 3.1 23:41:53 26° NNE 23:41:53 26° NNE 23:43:40 10° NNE visible
14 May 3.0 23:43:27 30° N 23:43:27 30° N 23:45:46 10° NNE visible
15 May 3.0 23:44:57 27° NNW 23:44:57 27° NNW 23:47:46 10° NNE visible
16 May 3.3 22:10:15 17° NE 22:10:15 17° NE 22:11:16 10° NE visible
16 May 3.4 23:46:21 20° NW 23:46:46 20° NW 23:49:40 10° N visible
17 May 2.4 22:11:28 31° NE 22:11:28 31° NE 22:13:37 10° NE visible
17 May 3.9 23:47:33 12° WNW 23:49:11 15° NW 23:51:24 10° N visible
18 May 1.3 22:12:29 66° N 22:12:29 66° N 22:15:51 10° NNE visible
18 May 4.3 23:50:36 10° NW 23:51:38 11° NW 23:52:40 10° NNW visible
